Location: Madrid
(40.4167°N, 3.7036°W)
Time: 02:29:42
(UTC+00:00)

ISS - Pass Details

Date: 09 May 2026
Orbit: 414 x 424 km, 51.6° (Epoch: 15 May)

Event Time Altitude Azimuth Distance (km) Brightness Sun altitude
Exits shadow 02:57:13 24° 316° (NW) 923 -2.0 -20.6°
Maximum altitude 02:59:06 68° 34° (NE) 454 -3.5 -20.3°
Drops below altitude 10° 03:02:27 10° 119° (ESE) 1,494 -0.8 -19.9°
Sets 03:04:33 0° 122° (ESE) 2,357 0.2 -19.6°
